Santuari del Coll - Susqueda





Hora UTC 17:00
Temperatura 5.0 ºC
Humedad 93.0 %
Presión 1012.6 hPa
Pluja 0.0 mm
Velocidad viento 9.7 km/h
Dirección viento WSW

Datos diarios 2021-12-04



Hora UTC (invierno +1h; verano +2h)
Temperatura (ºC) Humedad (%) Presión (hPa) Velocidad viento (km/h) Precipitación (mm)
Hora UTC Aire Humedad Presión Vel. Dir. Vel. Max Dir. Intent. máx 5 min.
00:05 3.5 89.0 1017.7 20.9 W 20.9 0.0
00:10 3.5 89.0 1017.8 24.1 WNW 37.0 0.0
00:15 3.4 88.0 1017.8 16.1 W 32.2 0.0
00:15 3.3 89.0 1017.8 25.7 WSW 37.0 0.0
00:20 3.2 89.0 1017.4 9.7 W 37.0 0.0
00:25 3.1 90.0 1017.5 8.0 WSW 30.6 0.0
00:30 3.0 90.0 1017.2 11.3 WNW 32.2 0.0
00:35 2.9 90.0 1017.1 17.7 WSW 32.2 0.0
00:40 2.8 91.0 1016.9 20.9 W 32.2 0.0
00:45 2.8 92.0 1016.8 12.9 WNW 33.8 0.0
00:50 2.7 92.0 1016.6 8.0 WNW 33.8 0.0
00:55 2.7 93.0 1016.5 16.1 W 33.8 0.0
01:00 2.7 93.0 1016.5 17.7 NW 33.8 0.0
01:05 2.6 93.0 1016.5 12.9 WNW 33.8 0.0
01:10 2.6 93.0 1016.4 9.7 NW 33.8 0.0
01:20 2.6 94.0 1016.4 11.3 WNW 33.8 0.0
01:25 2.6 94.0 1016.3 16.1 WSW 37.0 0.0
01:30 2.6 94.0 1016.4 25.7 W 40.2 0.0
01:35 2.6 93.0 1016.0 12.9 W 40.2 0.0
01:40 2.7 92.0 1016.2 14.5 WSW 37.0 0.0
01:45 2.7 91.0 1016.3 17.7 W 33.8 0.0
01:50 2.8 91.0 1016.5 12.9 W 40.2 0.0
01:55 2.8 90.0 1016.5 19.3 SW 40.2 0.0
02:00 2.8 90.0 1016.4 6.4 WNW 33.8 0.0
02:05 2.9 89.0 1016.6 4.8 S 30.6 0.0
02:10 2.9 89.0 1016.4 19.3 WNW 37.0 0.0
02:15 2.9 88.0 1016.6 14.5 W 37.0 0.0
02:20 2.9 88.0 1016.7 6.4 WSW 32.2 0.0
02:25 2.9 87.0 1016.6 12.9 WNW 29.0 0.0
02:30 2.9 87.0 1016.5 16.1 SE 29.0 0.0
02:35 2.9 86.0 1016.4 19.3 WSW 25.7 0.0
02:40 2.9 85.0 1016.5 12.9 W 32.2 0.0
02:45 2.9 85.0 1016.3 17.7 SSE 25.7 0.0
02:50 2.9 85.0 1016.4 9.7 W 29.0 0.0
02:55 2.9 85.0 1016.2 14.5 WNW 29.0 0.0
03:00 2.9 85.0 1016.1 6.4 SW 29.0 0.0
03:05 2.9 85.0 1016.1 14.5 W 27.4 0.0
03:10 2.8 85.0 1015.8 16.1 W 32.2 0.0
03:15 2.8 84.0 1015.7 11.3 WSW 32.2 0.0
03:20 2.8 84.0 1015.7 11.3 W 29.0 0.0
03:25 2.8 84.0 1015.7 14.5 SW 29.0 0.0
03:30 2.8 85.0 1015.7 20.9 WSW 37.0 0.0
03:35 2.8 85.0 1015.7 12.9 WSW 35.4 0.0
03:40 2.7 86.0 1015.6 20.9 WSW 35.4 0.0
03:45 2.6 86.0 1015.5 17.7 W 38.6 0.0
03:50 2.4 87.0 1015.3 12.9 WSW 38.6 0.0
03:55 2.4 87.0 1015.4 11.3 W 35.4 0.0
04:00 2.4 87.0 1015.5 17.7 W 35.4 0.0
04:05 2.4 88.0 1015.3 4.8 W 29.0 0.0
04:10 2.4 87.0 1015.3 12.9 WNW 27.4 0.0
04:15 2.4 88.0 1015.2 14.5 WNW 30.6 0.0
04:20 2.4 89.0 1015.1 20.9 WNW 30.6 0.0
04:25 2.3 89.0 1015.2 3.2 SSW 29.0 0.0
04:30 2.3 89.0 1015.0 11.3 WSW 27.4 0.0
04:35 2.3 89.0 1015.1 14.5 WSW 27.4 0.0
04:40 2.3 89.0 1015.2 8.0 SW 24.1 0.0
04:45 2.3 90.0 1015.1 11.3 W 30.6 0.0
04:50 2.2 90.0 1014.9 22.5 W 30.6 0.0
04:50 2.2 91.0 1014.8 6.4 WSW 27.4 0.0
05:00 2.1 91.0 1015.0 16.1 WNW 27.4 0.0
05:05 2.1 92.0 1014.9 17.7 WNW 35.4 0.0
05:10 1.9 93.0 1014.6 22.5 W 38.6 0.0
05:15 1.9 93.0 1014.7 12.9 W 35.4 0.0
05:20 1.8 93.0 1014.7 27.4 W 30.6 0.0
05:25 1.8 94.0 1014.6 6.4 NW 37.0 0.0
05:30 1.8 94.0 1014.8 19.3 WNW 37.0 0.0
05:35 1.7 94.0 1014.7 20.9 W 46.7 0.0
05:40 1.7 95.0 1014.8 22.5 W 46.7 0.0
05:45 1.7 95.0 1014.7 22.5 WNW 46.7 0.0
05:50 1.7 95.0 1014.8 30.6 W 43.5 0.0
05:55 1.7 95.0 1014.7 9.7 W 43.5 0.0
06:00 1.7 95.0 1014.4 16.1 WNW 38.6 0.0
06:05 1.7 95.0 1014.7 24.1 WNW 35.4 0.0
06:10 1.7 95.0 1014.5 16.1 W 33.8 0.0
06:15 1.7 95.0 1014.4 12.9 N 33.8 0.0
06:20 1.7 95.0 1014.3 14.5 WNW 40.2 0.0
06:25 1.6 95.0 1014.2 16.1 WNW 40.2 0.0
06:30 1.6 95.0 1014.2 12.9 N 33.8 0.0
06:35 1.7 95.0 1014.3 6.4 W 49.9 0.0
06:40 1.7 95.0 1014.5 12.9 NW 49.9 0.0
06:45 1.7 95.0 1014.4 8.0 NW 49.9 0.0
06:50 1.7 95.0 1014.0 17.7 NW 40.2 0.0
06:55 1.7 95.0 1013.9 6.4 SSW 40.2 0.0
07:00 1.8 95.0 1014.0 8.0 WNW 46.7 0.0
07:05 1.8 95.0 1013.9 17.7 WNW 41.8 0.0
07:10 1.8 95.0 1014.0 25.7 NW 45.1 0.0
07:15 1.8 95.0 1014.0 17.7 NNW 45.1 0.0
07:20 1.8 95.0 1013.9 12.9 W 30.6 0.0
07:25 1.8 95.0 1013.9 16.1 NNW 27.4 0.0
07:30 1.8 95.0 1013.6 4.8 NW 27.4 0.0
07:35 1.8 95.0 1013.8 16.1 WNW 27.4 0.0
07:40 1.8 95.0 1013.8 12.9 E 27.4 0.0
07:45 1.8 95.0 1013.6 17.7 NNE 30.6 0.0
07:50 1.8 95.0 1013.8 14.5 WNW 35.4 0.0
07:55 1.9 95.0 1013.9 8.0 WNW 27.4 0.0
08:00 1.8 95.0 1013.9 11.3 NW 29.0 0.0
08:05 1.8 95.0 1013.6 1.6 NNW 30.6 0.0
08:10 1.8 95.0 1013.7 16.1 NNE 35.4 0.0
08:15 1.8 95.0 1013.6 24.1 W 37.0 0.0
08:20 1.8 95.0 1013.6 16.1 N 38.6 0.0
08:25 1.8 95.0 1013.7 12.9 SSW 37.0 0.0
08:30 1.8 95.0 1013.3 19.3 WNW 43.5 0.0
08:35 1.8 95.0 1013.5 22.5 W 53.1 0.0
08:40 1.8 95.0 1013.6 17.7 W 56.3 0.0
08:45 1.8 95.0 1013.5 19.3 WNW 56.3 0.0
08:50 1.9 95.0 1013.4 25.7 W 53.1 0.0
08:55 1.9 95.0 1013.2 22.5 WNW 53.1 0.0
09:00 1.9 95.0 1013.5 22.5 W 48.3 0.0
09:00 1.9 95.0 1013.3 6.4 W 48.3 0.0
09:05 2.1 95.0 1013.2 32.2 W 41.8 0.0
09:10 2.1 95.0 1013.1 14.5 WNW 41.8 0.0
09:15 2.1 95.0 1013.1 16.1 W 46.7 0.0
09:20 2.1 95.0 1013.0 17.7 NNW 46.7 0.0
09:25 2.2 95.0 1013.1 22.5 N 40.2 0.0
09:30 2.2 95.0 1012.8 32.2 W 45.1 0.0
09:35 2.2 95.0 1012.9 22.5 NW 45.1 0.0
09:45 0.0
09:50 0.0
09:55 0.0
10:00 2.2 95.0 1012.3 24.1 N 48.3 0.0
10:05 2.2 95.0 1012.4 32.2 NW 48.3 0.0
10:10 2.2 95.0 1012.2 14.5 SSW 45.1 0.0
10:15 2.2 95.0 1012.0 22.5 NW 54.7 0.0
10:20 2.3 95.0 1012.4 14.5 SW 54.7 0.0
10:25 2.3 95.0 1012.3 19.3 W 49.9 0.0
10:30 2.4 94.0 1012.5 16.1 WNW 41.8 0.0
10:35 2.5 94.0 1012.5 22.5 W 41.8 0.0
10:40 2.6 95.0 1012.8 25.7 WNW 35.4 0.0
10:45 2.7 95.0 1012.7 22.5 WNW 45.1 0.0
10:50 2.7 94.0 1012.9 8.0 NW 45.1 0.0
10:55 2.7 94.0 1013.0 17.7 W 32.2 0.0
11:00 2.7 94.0 1012.9 19.3 WNW 32.2 0.0
11:05 2.7 95.0 1012.9 16.1 W 30.6 0.0
11:10 2.7 95.0 1012.9 12.9 NNW 30.6 0.0
11:15 2.7 94.0 1012.7 25.7 NW 27.4 0.0
11:20 2.8 94.0 1013.0 17.7 N 40.2 0.0
11:25 3.1 95.0 1012.8 27.4 W 38.6 0.0
11:30 3.3 95.0 1012.7 16.1 NW 33.8 0.0
11:35 3.5 95.0 1012.9 20.9 WNW 33.8 0.0
11:40 3.6 95.0 1013.0 32.2 WSW 32.2 0.0
11:45 3.7 95.0 1013.2 17.7 W 38.6 0.0
11:50 3.7 95.0 1013.0 19.3 W 38.6 0.0
11:50 3.8 95.0 1013.0 17.7 W 38.6 0.0
11:55 3.8 94.0 1013.1 22.5 W 37.0 0.0
12:00 3.9 95.0 1013.0 20.9 W 38.6 0.0
12:05 3.9 95.0 1013.2 24.1 WNW 38.6 0.0
12:10 4.1 94.0 1013.2 29.0 W 37.0 0.0
12:15 4.2 95.0 1013.1 12.9 WNW 37.0 0.0
12:20 4.4 95.0 1013.4 6.4 W 35.4 0.0
12:25 4.6 95.0 1013.2 6.4 WSW 25.7 0.0
12:30 4.8 95.0 1012.9 12.9 W 25.7 0.0
12:35 4.9 95.0 1012.8 4.8 SW 19.3 0.0
12:40 5.1 96.0 1012.5 1.6 SSW 17.7 0.0
12:45 5.3 96.0 1012.7 11.3 W 11.3 0.0
12:55 5.4 95.0 1012.9 8.0 WSW 27.4 0.0
13:00 5.4 94.0 1012.8 12.9 W 20.9 0.0
13:05 5.3 94.0 1012.8 12.9 W 29.0 0.0
13:10 5.3 94.0 1012.8 14.5 W 29.0 0.0
13:15 5.2 94.0 1013.1 8.0 WSW 24.1 0.0
13:20 5.1 94.0 1013.0 16.1 W 25.7 0.0
13:25 5.0 94.0 1012.9 14.5 W 27.4 0.0
13:30 4.9 94.0 1013.0 3.2 SW 27.4 0.0
13:35 4.9 94.0 1012.9 11.3 WSW 20.9 0.0
13:40 4.9 94.0 1013.0 4.8 SW 20.9 0.0
13:45 4.9 94.0 1013.0 4.8 SW 19.3 0.0
13:50 4.8 94.0 1012.8 6.4 WSW 19.3 0.0
13:55 4.8 94.0 1012.7 12.9 WSW 19.3 0.0
14:00 4.8 94.0 1013.0 6.4 WSW 19.3 0.0
14:05 4.8 94.0 1012.8 14.5 W 22.5 0.0
14:10 4.7 94.0 1012.5 17.7 W 24.1 0.0
14:15 4.7 94.0 1012.7 11.3 W 22.5 0.0
14:20 4.7 94.0 1012.6 9.7 SW 30.6 0.0
14:25 4.7 94.0 1012.8 4.8 SSW 20.9 0.0
14:30 4.8 94.0 1012.5 8.0 WSW 20.9 0.0
14:35 4.8 93.0 1012.6 9.7 SSE 24.1 0.0
14:40 4.8 93.0 1012.5 8.0 WSW 24.1 0.0
14:45 4.8 93.0 1012.4 6.4 S 22.5 0.0
14:50 4.8 93.0 1012.4 6.4 WSW 22.5 0.0
14:55 4.8 93.0 1012.5 8.0 SSW 17.7 0.0
15:00 4.9 93.0 1012.5 6.4 WSW 24.1 0.0
15:05 4.9 93.0 1012.8 8.0 SW 24.1 0.0
15:10 4.9 93.0 1012.6 11.3 WSW 16.1 0.0
15:15 4.9 93.0 1012.6 4.8 WSW 19.3 0.0
15:20 5.0 92.0 1012.5 3.2 WSW 20.9 0.0
15:25 5.0 92.0 1012.6 14.5 WSW 19.3 0.0
15:30 5.0 92.0 1012.6 17.7 WSW 19.3 0.0
15:35 5.0 92.0 1012.6 12.9 WSW 22.5 0.0
15:40 5.0 92.0 1012.7 9.7 SSW 22.5 0.0
15:45 5.1 92.0 1012.5 16.1 W 19.3 0.0
15:50 5.1 92.0 1012.5 11.3 W 29.0 0.0
15:55 5.0 92.0 1012.6 16.1 WSW 27.4 0.0
16:00 5.0 92.0 1012.6 6.4 WSW 17.7 0.0
16:05 5.0 92.0 1012.7 4.8 SSW 20.9 0.0
16:10 4.9 92.0 1012.5 1.6 WNW 24.1 0.0
16:15 5.0 92.0 1012.5 12.9 WNW 32.2 0.0
16:20 5.0 92.0 1012.7 4.8 S 32.2 0.0
16:25 5.0 92.0 1012.6 6.4 WNW 27.4 0.0
16:30 5.1 92.0 1012.7 12.9 W 27.4 0.0
16:35 5.0 92.0 1012.7 12.9 WSW 25.7 0.0
16:40 5.0 92.0 1012.8 11.3 E 25.7 0.0
16:45 5.0 92.0 1012.7 3.2 SW 25.7 0.0
16:50 5.0 92.0 1012.6 4.8 W 24.1 0.0
16:55 5.0 93.0 1012.7 9.7 WSW 25.7 0.0
17:00 5.0 93.0 1012.6 9.7 WSW 25.7 0.0
Máxima 5.4 96.0 1017.8 32.2 WSW 56.3 0.0
Mínima 1.6 84.0 1012.0
Total 0.0